Flag for El Salvador Weather past 2 weeks in Santa Ana, El Salvador

Now
88 °F

Scattered clouds.


Feels Like: 90 °F
Forecast: 69 / 89 °F
Wind: 12 mph from Northeast

Location: San Salvador / Ilopango

Current Time: Mar 6, 2015 at 12:09:08 PM

Latest Report: Mar 6, 2015 at 10:50 AM


Visibility: N/A

Pressure: 30.01 "Hg

Humidity: 49%

Dew point: 66 °F

Location of Santa AnaLocation

Historic Weather in Santa Ana — Graph

°F

Santa Ana temperature yesterday

Maximum temperature yesterday: 91 °F (at 1:50 PM)
Minimum temperature yesterday: 66 °F (at 5:50 AM)
Average temperature yesterday: 79 °F

Past Weeks' High & Low Weather Summary

 TemperatureHumidityPressure
High95 °F (Mar 2, 1:50 PM)94% (Feb 27, 6:50 AM)30.09 "Hg (Feb 27, 6:50 AM)
Low64 °F (Feb 21, 5:50 AM)29% (Mar 6, 9:50 AM)29.86 "Hg (Mar 4, 5:50 PM)
Average79 °F65%29.97 "Hg
* Reported Feb 19 10:50 AM — Mar 6 10:50 AM, Santa Ana, Weather by CustomWeather, © 2015

Note: Actual official high and low records may vary slightly from our data, if they occured in-between our weather recording intervals... More about our weather records

Advertising

Santa Ana weather history for previous 24 hours

 ConditionsComfort  
Time TempWeatherWind HumidityBarometerVisibility
10:50 AM
Fri, Mar 6
88 °FScattered clouds.12 mph49%30.01 "HgN/A
10:00 AM86 °FScattered clouds.6 mph29%30.01 "HgN/A
9:50 AM86 °FScattered clouds.6 mph29%30.01 "HgN/A
8:50 AM73 °FPassing clouds.3 mph78%30.01 "HgN/A
7:50 AM73 °FPartly sunny.No wind74%30.01 "HgN/A
6:50 AM72 °FSunny.2 mph78%29.98 "Hg10 mi
5:50 AM72 °FClear.2 mph78%29.98 "Hg10 mi
11:50 PM
Thu, Mar 5
75 °FClear.No wind74%29.98 "Hg10 mi
10:50 PM75 °FClear.No wind78%29.98 "Hg10 mi
9:50 PM75 °FClear.No wind74%29.98 "Hg10 mi
8:50 PM75 °FClear.2 mph74%29.98 "Hg10 mi
7:50 PM77 °FClear.5 mph74%29.95 "Hg10 mi
6:50 PM77 °FClear.7 mph69%29.92 "Hg10 mi
5:50 PM81 °FSunny.7 mph62%29.89 "Hg10 mi
4:50 PM84 °FSunny.7 mph58%29.89 "Hg10 mi
3:50 PM86 °FPassing clouds.13 mph55%29.89 "HgN/A
2:50 PM86 °FSunny.3 mph52%29.89 "Hg10 mi
1:50 PM91 °FSunny.7 mph44%29.89 "Hg10 mi
12:50 PM86 °FScattered clouds.7 mph52%29.95 "HgN/A
Weather by CustomWeather, © 2015

See weather overviewHow to use our weather pages